Regional Weather Roundup
Issued by NWS Jackson, KY

Home | Current Version | Previous Version | Text Only | Print | Product List | Glossary Off
Versions: 1 2 3 4 5 6 7 8 9 10 11 12 13 14 15 16 17 18 19 20 21 22 23 24 25 26 27 28 29 30 31 32 33 34 35 36 37 38 39 40 41 42 43 44 45 46 47 48 49 50

000
ASUS43 KJKL 150319
RWRJKL

EAST KENTUCKY HOURLY WEATHER ROUNDUP
NATIONAL WEATHER SERVICE JACKSON KY
1100 PM EDT SUN SEP 14 2014

NOTE: "FAIR" INDICATES FEW OR NO CLOUDS BELOW 12,000 FEET WITH
NO SIGNIFICANT WEATHER AND/OR OBSTRUCTIONS TO VISIBILITY.

* THESE REPORTS ARE NOT UNDER NWS QUALITY CONTROL AND MAY NOT
  REPORT WEATHER SUCH AS PRECIPITATION AND FOG.

KYZ079-080-083-085-087-088-110-112-115-119-120-150400
...EASTERN KENTUCKY...

CITY           SKY/WX    TMP DP  RH WIND       PRES   REMARKS
JACKSON        CLEAR     60  53  77 CALM      30.23R
LONDON         CLEAR     61  56  83 CALM      30.22R
MONTICELLO*    CLEAR     56  56 100 CALM      30.22S
WILLIAMSBURG*  CLEAR     57  57 100 CALM      30.21S
MIDDLESBORO*   PTCLDY    62  62  98 CALM      30.22S
HARLAN APT*    PTCLDY    61  61 100 MISG      30.22S
HAZARD APT*    PTCLDY    57  57 100 CALM      30.22S FOG
BLACK MTN*       N/A     57  57 100 S6          N/A
PIKEVILLE APT* CLEAR     59  57  94 CALM      30.23S
BIG SANDY*     CLEAR     56  55  99 CALM      30.23R
MOREHEAD APT*  CLEAR     57  52  82 CALM      30.24S
ASHLAND*       CLEAR     54  48  82 CALM      30.21S
$$

KYZ035-036-041-042-044-050-067-078-099-150400
...CENTRAL KENTUCKY...

CITY           SKY/WX    TMP DP  RH WIND       PRES   REMARKS
MT STERLING*   CLEAR     52  52 100 CALM      30.23S
FLEMING/MASON* CLEAR     57  48  72 NE3       30.24S
DANVILLE*      CLEAR     52  52 100 CALM      30.23R
RICHMOND*      CLEAR     57  52  82 CALM      30.21S
LEXINGTON      CLEAR     59  50  72 NE3       30.22S
FRANKFORT      CLEAR     53  51  93 CALM      30.21S
$$

KYZ091>093-OHZ055-061-077-WVZ005-015-034-035-042-150400
...SOUTHERN OHIO/WEST VIRGINIA...

CITY           SKY/WX    TMP DP  RH WIND       PRES   REMARKS
COVINGTON      CLEAR     54  48  80 CALM      30.21F
COLUMBUS       CLEAR     56  47  71 CALM      30.22S
DAYTON         CLEAR     58  47  66 CALM      30.23R
WILMINGTON     CLEAR     51  47  86 CALM      30.22S
HUNTINGTON     CLEAR     54  53  97 CALM      30.22R
CHARLESTON     MOCLDY    53  53 100 CALM      30.22S FOG
PINEVILLE*     CLOUDY    63  63 100 MISG      30.29S
BECKLEY        MOCLDY    57  54  89 CALM      30.26S
BLUEFIELD      PTCLDY    59  55  87 SE3       30.27S
$$

VAZ002-007-008-TNZ017-027-036-066-071-150400
...SOUTHWEST VIRGINIA/EAST TENNESSEE...

CITY           SKY/WX    TMP DP  RH WIND       PRES   REMARKS
WISE*          FOG       61  61 100 CALM      30.27F VSB 1/4
JONESVILLE*    CLOUDY    64  64 100 CALM      30.24S
ABINGDON*      CLOUDY    64  61  91 E3        30.25S
BRISTOL        MOCLDY    64  61  90 CALM      30.22F
KNOXVILLE      PTCLDY    68  65  90 CALM      30.18S
OAK RIDGE      PTCLDY    68  65  90 CALM      30.21R
CROSSVILLE     PTCLDY    64  60  87 CALM      30.24R
NASHVILLE      CLEAR     63  56  78 CALM      30.20R
$$

...KEY TO REMARKS...
VSB - VISIBILITY IN MILES
WCI - WIND CHILL INDEX
HX  - HEAT INDEX

$$



USA.gov is the U.S. government's official web portal to all federal, state and local government web resources and services.